Location: M�nchen
(48.1404°N, 11.6043°E)
Time: 06:55:41
(UTC+01:00)

ISS - Pass Details

Date: 16 November 2017
Orbit: 401 x 407 km, 51.6° (Epoch: 25 November)

Event Time Altitude Azimuth Distance (km) Brightness Sun altitude
Exits shadow 05:38:26 30° 218° (SW) 757 -2.7 -17.1°
Maximum altitude 05:38:29 30° 216° (SW) 757 -2.7 -17.1°
Drops below altitude 10° 05:41:21 10° 154° (SSE) 1,448 -0.5 -16.7°
Sets 05:43:34 0° 143° (SE) 2,303 0.8 -16.3°
